Weather Roundup
Issued by NWS

Home | Current Version | Previous Version | Graphics & Text | Print | Product List | Glossary Off
Versions: 1 2 3 4 5 6 7 8 9 10 11 12 13 14 15 16 17 18 19 20 21 22 23 24 25 26 27 28 29 30 31 32 33 34 35 36 37 38 39 40 41 42 43 44 45 46 47 48 49 50

000
NZUS93 KARX 211659
HRRWXR

CURRENT HOURLY OBSERVATIONS ACROSS
MUCH OF THE UPPER MISSISSIPPI VALLEY
NATIONAL WEATHER SERVICE LA CROSSE WI
1200 PM CDT THU SEP 21 2017


...SOUTHEAST MINNESOTA...


CITY           SKY/WX    TMP DP  RH WIND       PRES   REMARKS
ROCHESTER      MOSUNNY   73  65  75 E13       29.96F
ROCHESTER/MAYO PTSUNNY   73  64  73 E12       29.95F
WINONA         CLOUDY    72  61  68 SE7       29.96F
AUSTIN         MOSUNNY   73  66  78 SE9       29.93F
ALBERT LEA     PTSUNNY   73  66  78 SE8       29.93F
DODGE CENTER   CLOUDY    72  63  73 E10       29.95F
PRESTON        MOSUNNY   73  64  72 SE7       29.97F
OWATONNA       CLOUDY    73  64  73 SE12      29.94F
FARIBAULT      CLOUDY    73  64  73 SE15      29.94F
$$

...ELSEWHERE IN MINNESOTA...


CITY           SKY/WX    TMP DP  RH WIND       PRES   REMARKS
MINNEAPOLIS    SUNNY     74  58  57 SE15      29.94F
INTNL FALLS    SUNNY     67  46  47 SE13      29.95F
DULUTH         SUNNY     66  53  63 SE14      30.01F
RED WING       SUNNY     73  57  56 SE10      29.94F
REDWOOD FALLS  SUNNY     75  58  55 SE14      29.86F
MANKATO        CLOUDY    73  64  73 SE16      29.91F
WORTHINGTON    SUNNY     75  66  73 SE15      29.86F
FAIRMONT       MOSUNNY   75  66  73 SE14      29.88F
$$

...SOUTHWEST WISCONSIN...


CITY           SKY/WX    TMP DP  RH WIND       PRES   REMARKS
LA CROSSE      NOT AVBL
PRAIRIE DU CHI CLOUDY    78  64  61 SE3       29.97F
BOSCOBEL       CLOUDY    82  66  58 S6        29.98F
LONE ROCK      NOT AVBL
PLATTEVILLE    PTSUNNY   77  69  77 SE10      30.01F
FORT MC COY    CLOUDY    67  62  86 E6        29.99F
MAUSTON-NEW LI CLOUDY   N/A N/A N/A SE6       30.01F FOG
VIROQUA        FAIR      75  69  80 SE8       30.01F
WIS DELLS      CLOUDY    75  69  82 SE5       30.02F
$$

...ELSEWHERE IN WISCONSIN...


CITY           SKY/WX    TMP DP  RH WIND       PRES   REMARKS
MILWAUKEE      CLOUDY    79  69  71 SE6       30.03S
MADISON        PTSUNNY   76  70  82 S6        30.03S
GREEN BAY      CLOUDY    72  68  87 NE6       30.04S
EAU CLAIRE     NOT AVBL
BLACK RVR FLS  CLOUDY    71  68  91 SE6       30.00F
MEDFORD        PTSUNNY   72  64  76 SE8       30.02F
WAUSAU         MOSUNNY   74  65  73 SE10      30.01F
WIS RAPIDS     CLOUDY    69  32  25 SE9       30.04S FOG
MARSHFIELD     CLOUDY    70  66  87 SE12      30.02S FOG
RICE LAKE      SUNNY     73  57  57 SE8       30.00F
$$

...NORTHEAST IOWA...


CITY           SKY/WX    TMP DP  RH WIND       PRES   REMARKS
WATERLOO       SUNNY     81  64  56 S16       29.94S
DUBUQUE        PTSUNNY   75  65  70 SE9       30.00F
DECORAH        CLOUDY    77  64  65 S10G16    29.96F
MASON CITY     PTSUNNY   74  66  76 S13       29.94F
CHARLES CITY   SUNNY     79  66  65 S10G20    29.94F
OELWEIN        CLOUDY    81  63  54 S16G23    29.97F
$$

...ELSEWHERE IN IOWA...


CITY           SKY/WX    TMP DP  RH WIND       PRES   REMARKS
DES MOINES     CLOUDY    78  66  66 SE20      29.94S
IOWA CITY      CLOUDY    83  60  45 S13       29.95F
FORT DODGE     CLOUDY    78  70  76 S8G21     29.91F
MARSHALLTOWN   SUNNY     81  67  62 S16       29.93F
CEDAR RAPIDS   CLOUDY    84  59  42 S17G25    29.94F
$$

...NORTHERN ILLINOIS...


CITY           SKY/WX    TMP DP  RH WIND       PRES   REMARKS
CHICAGO-OHARE  PTSUNNY   90  62  39 S6        30.02S HX  90
CHICAGO-MIDWAY PTSUNNY   91  62  37 VRB6      30.02S HX  91
MOLINE         CLOUDY    80  57  45 SW12      29.94R
ROCKFORD       CLOUDY    81  70  69 CALM      30.04S
PEORIA         CLOUDY    83  64  52 VRB3      30.03F
$$

NOTE: "FAIR" INDICATES FEW OR NO CLOUDS BELOW 12,000 FEET WITH NO
SIGNIFICANT WEATHER AND/OR OBSTRUCTIONS TO VISIBILITY. WIND
SPEEDS ARE IN MILES-PER-HOUR.




USA.gov is the U.S. government's official web portal to all federal, state and local government web resources and services.